SHT9P EGPH-EGLL

Flight info

Callsign SHT9P
Flight time N/A
Altitude 33000
Route GOSAM1D GOSAM P600 FENIK L612 NAVSO DCT AKOMU DCT VAMEB DCT NUGRA NUGRA2H
Aircraft B752/M-SDE2E3FGHIJ3J4J7RWXY/LB1

Departure

Time 2026-04-21 07:27
Airport Edinburgh Airport (EGPH)

Arrival

Time N/A
Airport London Heathrow Airport (EGLL)
Time Latitude Longitude Altitude Speed Heading
2026-04-21 07:18 55.94884 -3.36553 107 ft 0 kts 149°
2026-04-21 07:19 55.94885 -3.36553 107 ft 0 kts 149°
2026-04-21 07:19 55.94897 -3.36566 107 ft 2 kts 149°
2026-04-21 07:19 55.94910 -3.36580 107 ft 2 kts 149°
2026-04-21 07:19 55.94923 -3.36592 107 ft 2 kts 172°
2026-04-21 07:20 55.94938 -3.36591 107 ft 2 kts 197°
2026-04-21 07:20 55.94951 -3.36578 107 ft 2 kts 223°
2026-04-21 07:20 55.94957 -3.36566 107 ft 1 kts 239°
2026-04-21 07:20 55.94960 -3.36558 107 ft 0 kts 239°
2026-04-21 07:22 55.94954 -3.36575 107 ft 4 kts 239°
2026-04-21 07:22 55.94928 -3.36651 107 ft 10 kts 238°
2026-04-21 07:22 55.94899 -3.36772 107 ft 9 kts 287°
2026-04-21 07:23 55.94922 -3.36879 107 ft 11 kts 263°
2026-04-21 07:23 55.94869 -3.37061 107 ft 20 kts 239°
2026-04-21 07:23 55.94791 -3.37291 107 ft 22 kts 239°
2026-04-21 07:23 55.94706 -3.37539 107 ft 23 kts 238°
2026-04-21 07:24 55.94622 -3.37787 108 ft 23 kts 239°
2026-04-21 07:24 55.94539 -3.38031 109 ft 22 kts 239°
2026-04-21 07:24 55.94460 -3.38261 111 ft 21 kts 240°
2026-04-21 07:24 55.94385 -3.38482 114 ft 20 kts 238°
2026-04-21 07:25 55.94318 -3.38678 115 ft 12 kts 239°
2026-04-21 07:25 55.94282 -3.38797 116 ft 6 kts 259°
2026-04-21 07:25 55.94300 -3.38863 116 ft 6 kts 321°
2026-04-21 07:25 55.94345 -3.38915 117 ft 9 kts 328°
2026-04-21 07:26 55.94424 -3.38921 116 ft 13 kts 43°
2026-04-21 07:26 55.94449 -3.38864 116 ft 0 kts 58°
2026-04-21 07:26 55.94505 -3.38698 115 ft 49 kts 59°
2026-04-21 07:26 55.94835 -3.37729 108 ft 131 kts 59°
2026-04-21 07:27 55.95398 -3.36106 540 ft 168 kts 59°
2026-04-21 07:27 55.96021 -3.34423 1689 ft 167 kts 51°
2026-04-21 07:27 55.96879 -3.32963 2351 ft 181 kts 45°
2026-04-21 07:27 55.97855 -3.31365 2897 ft 202 kts 46°
2026-04-21 07:28 55.98922 -3.29615 3562 ft 219 kts 44°
2026-04-21 07:28 56.00325 -3.28282 4181 ft 245 kts 15°
2026-04-21 07:28 56.02061 -3.28476 4994 ft 266 kts 344°
2026-04-21 07:28 56.03615 -3.30279 5885 ft 282 kts 315°
2026-04-21 07:29 56.04587 -3.33358 6769 ft 293 kts 285°
2026-04-21 07:29 56.04680 -3.36964 7656 ft 297 kts 256°
2026-04-21 07:29 56.03862 -3.40301 8550 ft 295 kts 230°
2026-04-21 07:29 56.02500 -3.42930 9437 ft 292 kts 215°
2026-04-21 07:30 56.00778 -3.44698 10284 ft 286 kts 192°
2026-04-21 07:30 55.98864 -3.45498 11045 ft 290 kts 187°
2026-04-21 07:30 55.96825 -3.46368 11432 ft 312 kts 189°
2026-04-21 07:30 55.94671 -3.47353 11832 ft 331 kts 190°
2026-04-21 07:31 55.92384 -3.48419 12181 ft 350 kts 191°
2026-04-21 07:31 55.90019 -3.49541 12883 ft 356 kts 191°
2026-04-21 07:31 55.87624 -3.50680 13624 ft 362 kts 191°
2026-04-21 07:31 55.85199 -3.51835 14379 ft 366 kts 191°
2026-04-21 07:32 55.82758 -3.52997 15133 ft 370 kts 191°
2026-04-21 07:32 55.80248 -3.54191 15898 ft 374 kts 191°
2026-04-21 07:32 55.77760 -3.55373 16660 ft 377 kts 191°
2026-04-21 07:32 55.75223 -3.56577 17388 ft 381 kts 191°
2026-04-21 07:33 55.72665 -3.57789 18085 ft 385 kts 191°
2026-04-21 07:33 55.70089 -3.59009 18791 ft 388 kts 191°
2026-04-21 07:33 55.67450 -3.60256 19458 ft 392 kts 191°
2026-04-21 07:33 55.64827 -3.61494 20145 ft 394 kts 191°
2026-04-21 07:34 55.62171 -3.62746 20792 ft 398 kts 191°
2026-04-21 07:34 55.59505 -3.64002 21421 ft 401 kts 191°
2026-04-21 07:34 55.56807 -3.65270 22055 ft 404 kts 190°
2026-04-21 07:34 55.54099 -3.66541 22664 ft 407 kts 190°
2026-04-21 07:35 55.51379 -3.67815 23221 ft 411 kts 190°
2026-04-21 07:35 55.48601 -3.69116 23830 ft 413 kts 190°
2026-04-21 07:35 55.45845 -3.70404 24330 ft 417 kts 189°
2026-04-21 07:35 55.43057 -3.71705 24843 ft 420 kts 189°
2026-04-21 07:36 55.40236 -3.73019 25285 ft 424 kts 190°
2026-04-21 07:36 55.37392 -3.74342 25780 ft 426 kts 190°
2026-04-21 07:36 55.34528 -3.75672 26205 ft 430 kts 190°
2026-04-21 07:36 55.31625 -3.77018 26659 ft 432 kts 190°
2026-04-21 07:37 55.28697 -3.78367 27066 ft 435 kts 189°
2026-04-21 07:37 55.25741 -3.79211 27466 ft 433 kts 180°
2026-04-21 07:37 55.22741 -3.79140 27831 ft 432 kts 170°
2026-04-21 07:37 55.19813 -3.78152 28181 ft 432 kts 161°
2026-04-21 07:38 55.17009 -3.76307 28533 ft 432 kts 153°
2026-04-21 07:38 55.14285 -3.74141 28848 ft 436 kts 153°
2026-04-21 07:38 55.11535 -3.71907 29175 ft 439 kts 152°
2026-04-21 07:38 55.08775 -3.69617 29461 ft 443 kts 152°
2026-04-21 07:39 55.06004 -3.67293 29780 ft 447 kts 152°
2026-04-21 07:39 55.03198 -3.64924 30028 ft 451 kts 152°
2026-04-21 07:39 55.00366 -3.62526 30373 ft 453 kts 152°
2026-04-21 07:39 54.97557 -3.60143 30626 ft 458 kts 152°
2026-04-21 07:40 54.94694 -3.57714 30926 ft 460 kts 152°
2026-04-21 07:40 54.91808 -3.55267 31206 ft 463 kts 152°
2026-04-21 07:40 54.88939 -3.52837 31512 ft 466 kts 152°
2026-04-21 07:40 54.86005 -3.50354 31765 ft 469 kts 152°
2026-04-21 07:41 54.83087 -3.47889 32148 ft 468 kts 152°
2026-04-21 07:41 54.80156 -3.45416 32467 ft 469 kts 152°
2026-04-21 07:41 54.77257 -3.42974 32735 ft 470 kts 152°
2026-04-21 07:41 54.74298 -3.40484 32923 ft 472 kts 152°
2026-04-21 07:42 54.71346 -3.38005 33163 ft 473 kts 152°
2026-04-21 07:42 54.68413 -3.35545 33343 ft 476 kts 152°
2026-04-21 07:42 54.65433 -3.33050 33547 ft 477 kts 153°
2026-04-21 07:42 54.62447 -3.30554 33732 ft 480 kts 153°
2026-04-21 07:43 54.59434 -3.28039 33886 ft 483 kts 154°
2026-04-21 07:43 54.56438 -3.25543 34044 ft 485 kts 154°
2026-04-21 07:43 54.53417 -3.23031 34387 ft 483 kts 154°
2026-04-21 07:43 54.50396 -3.20522 34655 ft 483 kts 154°
2026-04-21 07:44 54.47413 -3.18049 34917 ft 482 kts 154°
2026-04-21 07:44 54.44367 -3.15528 35185 ft 482 kts 154°
2026-04-21 07:44 54.41391 -3.13070 35466 ft 481 kts 154°
2026-04-21 07:44 54.38353 -3.10563 35668 ft 482 kts 154°
2026-04-21 07:45 54.35357 -3.08096 35936 ft 481 kts 154°
2026-04-21 07:45 54.32366 -3.05636 36124 ft 482 kts 154°
2026-04-21 07:45 54.29364 -3.03173 36386 ft 481 kts 154°
2026-04-21 07:45 54.26351 -3.00704 36607 ft 481 kts 154°
2026-04-21 07:46 54.23341 -2.98241 36823 ft 481 kts 154°
2026-04-21 07:46 54.20331 -2.95782 37035 ft 480 kts 154°
2026-04-21 07:46 54.17338 -2.93345 37221 ft 481 kts 155°
2026-04-21 07:46 54.14274 -2.91062 37395 ft 478 kts 157°
2026-04-21 07:47 54.08217 -2.86662 37428 ft 478 kts 156°
2026-04-21 07:47 54.02099 -2.82217 37420 ft 479 kts 157°
2026-04-21 07:48 53.95825 -2.78579 37420 ft 477 kts 162°
2026-04-21 07:48 53.89500 -2.75198 37430 ft 479 kts 162°
2026-04-21 07:49 53.83127 -2.71823 37418 ft 481 kts 162°
2026-04-21 07:49 53.76778 -2.68478 37406 ft 481 kts 162°
2026-04-21 07:50 53.70414 -2.65137 37407 ft 483 kts 163°
2026-04-21 07:50 53.64032 -2.61799 37404 ft 481 kts 163°
2026-04-21 07:51 53.57647 -2.58470 37408 ft 482 kts 163°
2026-04-21 07:51 53.51250 -2.55145 37396 ft 482 kts 163°
2026-04-21 07:52 53.44890 -2.51851 37402 ft 483 kts 163°
2026-04-21 07:52 53.38452 -2.48526 37395 ft 484 kts 163°
2026-04-21 07:53 53.32045 -2.45228 37394 ft 483 kts 163°
2026-04-21 07:53 53.25637 -2.41939 37390 ft 485 kts 163°
2026-04-21 07:54 53.19236 -2.38666 37381 ft 484 kts 163°
2026-04-21 07:54 53.12841 -2.35404 37382 ft 485 kts 163°
2026-04-21 07:55 53.06392 -2.32124 37355 ft 485 kts 164°
2026-04-21 07:55 53.00281 -2.27445 37364 ft 487 kts 149°
2026-04-21 07:56 52.97468 -2.24522 37360 ft 475 kts 149°
2026-04-21 07:56 52.94720 -2.21678 37337 ft 461 kts 149°
2026-04-21 07:56 52.92041 -2.18895 36979 ft 456 kts 149°
2026-04-21 07:56 52.89337 -2.16079 36320 ft 459 kts 149°
2026-04-21 07:57 52.86646 -2.13274 35725 ft 460 kts 149°
2026-04-21 07:57 52.83961 -2.10478 35001 ft 466 kts 149°
2026-04-21 07:57 52.81210 -2.07615 34323 ft 470 kts 150°
2026-04-21 07:57 52.78451 -2.04749 33597 ft 473 kts 150°
2026-04-21 07:58 52.75666 -2.01859 32859 ft 475 kts 150°
2026-04-21 07:58 52.72872 -1.98963 32103 ft 477 kts 150°
2026-04-21 07:58 52.70089 -1.96082 31280 ft 480 kts 150°
2026-04-21 07:58 52.67284 -1.93183 30572 ft 478 kts 150°
2026-04-21 07:59 52.64475 -1.90283 29895 ft 474 kts 150°
2026-04-21 07:59 52.61684 -1.87411 29232 ft 475 kts 149°
2026-04-21 07:59 52.58882 -1.84530 28594 ft 475 kts 149°
2026-04-21 07:59 52.56120 -1.81692 27956 ft 468 kts 149°
2026-04-21 08:00 52.53398 -1.78897 27320 ft 460 kts 149°
2026-04-21 08:00 52.50727 -1.76163 26697 ft 454 kts 149°
2026-04-21 08:00 52.48064 -1.73439 26095 ft 449 kts 148°
2026-04-21 08:00 52.45447 -1.70767 25510 ft 444 kts 148°
2026-04-21 08:01 52.42858 -1.68127 24924 ft 439 kts 148°
2026-04-21 08:01 52.40260 -1.65482 24374 ft 435 kts 147°
2026-04-21 08:01 52.37719 -1.62898 23789 ft 429 kts 147°
2026-04-21 08:02 52.32754 -1.57855 22683 ft 420 kts 147°
2026-04-21 08:02 52.30292 -1.55360 22146 ft 417 kts 147°
2026-04-21 08:02 52.27807 -1.52849 21632 ft 414 kts 147°
2026-04-21 08:02 52.25401 -1.50419 21100 ft 407 kts 147°
2026-04-21 08:03 52.23007 -1.48001 20589 ft 402 kts 147°
2026-04-21 08:03 52.20795 -1.45405 20107 ft 396 kts 137°
2026-04-21 08:03 52.18706 -1.42474 19701 ft 391 kts 137°
2026-04-21 08:03 52.16655 -1.39628 19306 ft 389 kts 137°
2026-04-21 08:04 52.14601 -1.36769 18907 ft 385 kts 137°
2026-04-21 08:04 52.12587 -1.33966 18514 ft 381 kts 138°
2026-04-21 08:04 52.10582 -1.31178 18122 ft 377 kts 137°
2026-04-21 08:04 52.08598 -1.28419 17735 ft 374 kts 138°
2026-04-21 08:05 52.06636 -1.25695 17359 ft 372 kts 138°
2026-04-21 08:05 52.04690 -1.22996 16984 ft 370 kts 137°
2026-04-21 08:05 52.02741 -1.20296 16619 ft 365 kts 137°
2026-04-21 08:05 52.00839 -1.17663 16257 ft 362 kts 137°
2026-04-21 08:06 51.98922 -1.15014 15896 ft 359 kts 137°
2026-04-21 08:06 51.97028 -1.12400 15530 ft 355 kts 137°
2026-04-21 08:06 51.95165 -1.09829 15178 ft 356 kts 137°
2026-04-21 08:06 51.93279 -1.07230 14830 ft 348 kts 137°
2026-04-21 08:07 51.91498 -1.04782 14589 ft 327 kts 137°
2026-04-21 08:07 51.89817 -1.02472 14103 ft 308 kts 137°
2026-04-21 08:07 51.88235 -1.00300 13717 ft 290 kts 136°
2026-04-21 08:07 51.86712 -0.98207 13015 ft 287 kts 136°
2026-04-21 08:08 51.85222 -0.96154 12448 ft 282 kts 135°
2026-04-21 08:08 51.83771 -0.94083 11855 ft 278 kts 135°
2026-04-21 08:08 51.82328 -0.92021 11261 ft 275 kts 135°
2026-04-21 08:08 51.80915 -0.90003 10654 ft 272 kts 135°
2026-04-21 08:09 51.79513 -0.88006 10109 ft 267 kts 135°
2026-04-21 08:09 51.78074 -0.86150 9482 ft 268 kts 144°
2026-04-21 08:09 51.76503 -0.84585 8897 ft 265 kts 143°
2026-04-21 08:09 51.74916 -0.83073 8278 ft 265 kts 150°